TimePST,TemperatureF,Dew PointF,Humidity,Sea Level PressureIn,VisibilityMPH,Wind Direction,Wind SpeedMPH,Gust SpeedMPH,PrecipitationIn,Events,Conditions,WindDirDegrees,DateUTC
12:00 AM,39.9,38.1,93,30.33,-9999.0,NNE,3.5,-,N/A,,Unknown,20,2012-11-15 08:00:00
1:00 AM,38.3,36.7,94,30.32,-9999.0,East,1.2,-,N/A,,Unknown,100,2012-11-15 09:00:00
2:00 AM,39.0,37.4,94,30.30,-9999.0,NNE,2.3,-,N/A,,Unknown,30,2012-11-15 10:00:00
3:00 AM,38.3,36.7,94,30.29,-9999.0,NE,2.3,-,0.01,,Unknown,50,2012-11-15 11:00:00
4:00 AM,38,37,93,30.26,,NNE,3.5,,,,,30,2012-11-15 12:00:00
4:00 AM,38.1,36.7,95,30.26,-9999.0,NNE,3.5,-,N/A,,Unknown,30,2012-11-15 12:00:00
5:00 AM,38.7,37.2,95,30.26,-9999.0,SE,1.2,-,N/A,,Unknown,130,2012-11-15 13:00:00
6:00 AM,37.8,36.3,95,30.23,-9999.0,ENE,1.2,-,N/A,,Unknown,60,2012-11-15 14:00:00
7:00 AM,36.7,35.2,95,30.22,-9999.0,East,1.2,-,N/A,,Unknown,90,2012-11-15 15:00:00
8:00 AM,36.1,34.9,95,30.20,-9999.0,Calm,Calm,-,N/A,,Unknown,0,2012-11-15 16:00:00
9:00 AM,37.6,36.3,95,30.19,-9999.0,Calm,Calm,-,N/A,,Unknown,0,2012-11-15 17:00:00
10:00 AM,41,39,91,30.18,,SSE,1.2,,,,,160,2012-11-15 18:00:00
10:00 AM,40.6,39.2,95,30.18,-9999.0,SSE,1.2,-,N/A,,Unknown,160,2012-11-15 18:00:00
11:00 AM,47.3,44.6,90,30.14,-9999.0,North,2.3,-,N/A,,Unknown,360,2012-11-15 19:00:00
12:00 PM,48.7,39.6,71,30.10,-9999.0,North,3.5,-,N/A,,Unknown,10,2012-11-15 20:00:00
1:00 PM,47.5,39.7,75,30.08,-9999.0,West,2.3,-,N/A,,Unknown,270,2012-11-15 21:00:00
2:00 PM,50.4,41.0,70,30.06,-9999.0,WNW,1.2,-,N/A,,Unknown,300,2012-11-15 22:00:00
3:00 PM,47.8,41.4,78,30.04,-9999.0,West,2.3,-,N/A,,Unknown,260,2012-11-15 23:00:00
4:00 PM,46,41,76,30.03,,West,2.3,,,,,270,2012-11-16 00:00:00
4:00 PM,46.2,40.8,81,30.03,-9999.0,West,2.3,-,N/A,,Unknown,270,2012-11-16 00:00:00
5:00 PM,43.7,39.4,85,30.02,-9999.0,Calm,Calm,-,N/A,,Unknown,0,2012-11-16 01:00:00
6:00 PM,41.5,38.5,89,30.01,-9999.0,Calm,Calm,-,N/A,,Unknown,0,2012-11-16 02:00:00
7:00 PM,41.0,38.3,90,30.00,-9999.0,NE,2.3,-,N/A,,Unknown,40,2012-11-16 03:00:00
8:00 PM,40.6,37.9,90,29.99,-9999.0,NNE,2.3,-,N/A,,Unknown,30,2012-11-16 04:00:00
9:00 PM,40.3,37.9,91,29.99,-9999.0,NNE,1.2,-,N/A,,Unknown,30,2012-11-16 05:00:00
10:00 PM,38,36,90,29.99,,East,2.3,,,,,100,2012-11-16 06:00:00
10:00 PM,38.5,36.1,91,29.99,-9999.0,East,2.3,-,N/A,,Unknown,100,2012-11-16 06:00:00
11:00 PM,38.8,36.7,92,29.98,-9999.0,NE,2.3,-,N/A,,Unknown,40,2012-11-16 07:00:00